sat.trackr.live / text

‹ back to catalog

STARLINK-1270

NORAD 45237 · 2020-012BM

PAYLOAD ACTIVE UNKNOWN

§ Identity

Operator
Country
US
Launch date
2020-02-17
Launch site
AFETR
Launch vehicle
Mass (kg)
RCS (m²)

Purposes: comms

External: N2YO · Heavens-Above · Gunter

§ Orbital elements

Epoch: 2026-05-24T22:50:48.739200Z

Period
92.34 min
Inclination
53.0427°
Eccentricity
0.0002687
Mean motion
15.59455508 rev/d
Perigee alt
387.4 km
Apogee alt
391.1 km
Semi-major
6,767.4 km
B*
1.0948e-3
RAAN
339.6953°
Arg perigee
142.1101°
Mean anomaly
218.0101°
Rev number
34,752

§ Raw data

STARLINK-12701 45237U 20012BM  26144.95195300  .00088744  00000+0  10948-2 0  99992 45237  53.0427 339.6953 0002687 142.1101 218.0101 15.59455508347526

JSON: /api/v1/satellites/45237 · /tle

For live sub-satellite position, see the globe view (requires WebGL).

§ Visibility from observer

Set your observer location to see the next 7 days of passes ≥ 10°. The values pass through the URL so the page stays shareable.

No JS? Fill the form by hand. The geolocation button needs JavaScript.